This demonstration page uses our WeatherBlox Daily Observations layout. Learn more.

40.92945, -100.16068

Hourly Observations for October 26, 2020

Temp ( °F °C ) Dew Point ( °F °C ) Humidity (%) Winds ( mph kmh ) Pressure ( in mb ) Visibility ( mi km ) Precip ( " mm )
12:15 am 00:15 Cloudy with Light Snow 19 -7 16 -8.8 87 87 N 13 20 30.61 1037 2.5 4.02335 0 0
12:35 am 00:35 Cloudy with Light Snow 19 -7.3 15 -9.3 86 86 N 12 19 30.63 1037 2 3.21868 0 0
12:55 am 00:55 Cloudy with Light Snow 19 -7.5 15 -9.6 85 85 N 14 22 30.63 1037 2.5 4.02335 0 0
1:15 am 01:15 Cloudy with Light Snow 18 -8 14 -9.9 86 86 N 12 19 30.63 1037 1.75 2.816345 0.01 0.254
1:35 am 01:35 Cloudy with Light Snow 17 -8.2 13 -10.5 84 84 N 12 19 30.64 1038 2 3.21868 0.01 0.254
1:55 am 01:55 Cloudy with Light Snow 17 -8.5 11 -11.5 79 79 N 12 19 30.65 1038 4 6.43736 0.01 0.254
2:15 am 02:15 Cloudy with Light Snow 17 -8.5 10 -12.2 75 75 N 14 22 30.65 1038 7 11.26538 0 0
2:35 am 02:35 Cloudy with Light Snow 16 -8.7 11 -11.6 80 80 NNW 13 20 30.65 1038 3 4.82802 0 0
2:55 am 02:55 Cloudy with Light Snow 16 -8.7 11 -11.7 79 79 N 13 20 30.64 1038 5 8.0467 0 0
3:15 am 03:15 Cloudy with Light Snow 16 -8.8 10 -12 78 78 N 14 22 30.63 1037 5 8.0467 0 0
3:35 am 03:35 Cloudy with Light Snow 16 -9 11 -11.9 80 80 N 14 22 30.63 1037 4 6.43736 0 0
3:55 am 03:55 Cloudy with Light Snow 16 -9.1 11 -11.9 80 80 N 12 19 30.61 1037 4 6.43736 0 0
4:15 am 04:15 Cloudy with Light Snow 16 -9.1 11 -11.7 82 82 N 10 17 30.62 1037 7 11.26538 0 0
4:35 am 04:35 Cloudy 15 -9.2 10 -12 80 80 N 9 15 30.62 1037 10 16.0934 0 0
4:55 am 04:55 Cloudy 15 -9.3 10 -12 81 81 N 9 15 30.61 1036 10 16.0934 0 0
5:15 am 05:15 Cloudy 15 -9.3 10 -12.1 80 80 NNW 9 15 30.61 1036 10 16.0934 0 0
5:35 am 05:35 Cloudy 16 -9.1 10 -12.5 77 77 NNW 8 13 30.61 1037 10 16.0934 0 0
5:55 am 05:55 Cloudy with Light Snow 16 -9.1 9 -13 74 74 NNW 10 17 30.61 1037 10 16.0934 0 0
6:15 am 06:15 Cloudy with Light Snow 16 -9.1 8 -13.1 73 73 N 12 19 30.61 1037 10 16.0934 0 0
6:35 am 06:35 Cloudy 16 -9 8 -13.6 70 70 N 12 19 30.61 1037 10 16.0934 0 0
6:55 am 06:55 Cloudy 16 -9 8 -13.4 71 71 NNW 9 15 30.61 1037 10 16.0934 0 0
7:15 am 07:15 Cloudy 16 -9.1 8 -13.6 70 70 NNW 10 17 30.61 1037 10 16.0934 0 0
7:35 am 07:35 Cloudy 16 -9.1 8 -13.4 71 71 NNW 10 17 30.62 1037 10 16.0934 0 0
7:55 am 07:55 Cloudy 16 -9.1 8 -13.6 70 70 N 9 15 30.62 1037 10 16.0934 0 0
8:15 am 08:15 Cloudy 16 -9.1 8 -13.4 71 71 NW 6 9 30.63 1037 10 16.0934 0 0
8:35 am 08:35 Cloudy 16 -9.1 8 -13.2 72 72 NW 7 11 30.64 1038 10 16.0934 0 0
8:55 am 08:55 Cloudy 16 -9 8 -13.4 71 71 NNW 9 15 30.65 1038 10 16.0934 0 0
9:15 am 09:15 Cloudy 16 -9 8 -13.4 71 71 NNW 9 15 30.64 1038 10 16.0934 0 0
9:35 am 09:35 Cloudy 16 -8.7 8 -13.1 71 71 NNW 9 15 30.64 1038 10 16.0934 0 0
9:55 am 09:55 Mostly Cloudy 16 -8.7 8 -13.2 70 70 NNW 12 19 30.64 1038 10 16.0934 0 0
10:15 am 10:15 Mostly Cloudy 17 -8.3 8 -13.1 69 69 NNW 9 15 30.62 1037 10 16.0934 0 0
10:35 am 10:35 Mostly Cloudy 18 -8 8 -13.4 65 65 NNW 12 19 30.62 1037 10 16.0934 0 0
10:55 am 10:55 Mostly Cloudy 19 -7.5 9 -13 65 65 NNW 9 15 30.62 1037 10 16.0934 0 0
11:15 am 11:15 Mostly Cloudy 19 -7.4 8 -13.5 62 62 N 9 15 30.62 1037 10 16.0934 0 0
11:35 am 11:35 Partly Cloudy 20 -6.6 8 -13.4 59 59 N 8 13 30.61 1036 10 16.0934 0 0
11:55 am 11:55 Sunny 21 -6.2 8 -13.3 58 58 N 9 15 30.59 1036 10 16.0934 0 0
12:15 pm 12:15 Sunny 21 -6 8 -13.3 57 57 N 7 11 30.59 1036 10 16.0934 0 0
12:35 pm 12:35 Sunny 22 -5.8 8 -13.5 55 55 NNE 5 7 30.59 1036 10 16.0934 0 0
12:55 pm 12:55 Sunny 22 -5.8 8 -13.2 56 56 N 5 7 30.57 1035 10 16.0934 0 0
1:15 pm 13:15 Sunny 22 -5.5 9 -12.6 58 58 N 5 7 30.56 1035 10 16.0934 0 0
1:35 pm 13:35 Sunny 22 -5.4 9 -12.6 57 57 N 7 11 30.56 1035 10 16.0934 0 0
1:55 pm 13:55 Partly Cloudy 23 -5.2 10 -12.4 57 57 NNW 6 9 30.54 1034 10 16.0934 0 0
2:15 pm 14:15 Partly Cloudy 23 -5.2 10 -12.4 57 57 N 5 7 30.53 1034 10 16.0934 0 0
2:35 pm 14:35 Sunny 23 -5.1 10 -12.2 58 58 NNW 6 9 30.53 1034 10 16.0934 0 0
2:55 pm 14:55 Mostly Cloudy 23 -5 10 -12 58 58 Calm 30.54 1034 10 16.0934 0 0
3:15 pm 15:15 Partly Cloudy 23 -4.8 11 -11.9 58 58 WNW 5 7 30.52 1033 10 16.0934 0 0
3:35 pm 15:35 Partly Cloudy 23 -5.1 10 -12.4 57 57 Calm 30.51 1033 10 16.0934 0 0
3:55 pm 15:55 Mostly Cloudy 24 -4.5 12 -11.3 59 59 NW 5 7 30.5 1033 10 16.0934 0 0
4:15 pm 16:15 Mostly Cloudy 24 -4.7 11 -11.4 60 60 WNW 6 9 30.51 1033 10 16.0934 0 0
4:35 pm 16:35 Partly Cloudy 23 -4.9 12 -11.3 61 61 WNW 5 7 30.49 1032 10 16.0934 0 0
4:55 pm 16:55 Mostly Cloudy 23 -5 11 -11.5 61 61 WNW 6 9 30.49 1032 10 16.0934 0 0
5:15 pm 17:15 Cloudy 23 -5 12 -11.2 62 62 NW 8 13 30.5 1033 10 16.0934 0 0
5:35 pm 17:35 Cloudy 23 -5 11 -11.8 59 59 NW 6 9 30.49 1032 10 16.0934 0 0
5:55 pm 17:55 Cloudy 23 -5.1 11 -11.5 61 61 W 6 9 30.49 1033 10 16.0934 0 0
6:15 pm 18:15 Cloudy 23 -5 11 -11.4 61 61 NW 3 6 30.5 1033 10 16.0934 0 0
6:35 pm 18:35 Cloudy 23 -5.1 11 -11.4 62 62 W 5 7 30.5 1033 10 16.0934 0 0
6:55 pm 18:55 Cloudy 23 -5.1 11 -11.4 62 62 WSW 3 6 30.51 1033 10 16.0934 0 0
7:15 pm 19:15 Cloudy 23 -5.1 12 -11.3 62 62 WNW 5 7 30.49 1033 10 16.0934 0 0
7:35 pm 19:35 Cloudy 23 -5.1 11 -11.5 61 61 WNW 5 7 30.49 1033 10 16.0934 0 0
7:55 pm 19:55 Cloudy 23 -5.1 12 -10.9 64 64 W 6 9 30.51 1033 10 16.0934 0 0
8:15 pm 20:15 Cloudy 23 -5.2 12 -11.2 63 63 W 3 6 30.5 1033 10 16.0934 0 0
8:35 pm 20:35 Mostly Cloudy 23 -5.1 13 -10.8 65 65 WNW 3 6 30.5 1033 10 16.0934 0 0
8:55 pm 20:55 Mostly Cloudy 23 -5.2 14 -10.1 69 69 W 3 6 30.51 1033 10 16.0934 0 0
9:15 pm 21:15 Mostly Cloudy 22 -5.3 14 -9.9 70 70 WSW 3 6 30.51 1033 10 16.0934 0 0
9:35 pm 21:35 Mostly Cloudy 23 -5.1 12 -10.9 64 64 W 5 7 30.49 1033 10 16.0934 0 0
9:55 pm 21:55 Partly Cloudy 23 -5.1 13 -10.5 66 66 SW 5 7 30.5 1033 10 16.0934 0 0
10:15 pm 22:15 Partly Cloudy 23 -5.2 13 -10.6 66 66 WSW 3 6 30.5 1033 10 16.0934 0 0
10:35 pm 22:35 Partly Cloudy 23 -5.2 13 -10.3 68 68 Calm 30.5 1033 10 16.0934 0 0
10:55 pm 22:55 Mostly Cloudy 22 -5.5 14 -10.2 70 70 WSW 3 6 30.5 1033 10 16.0934 0 0
11:15 pm 23:15 Cloudy 22 -5.3 14 -10 70 70 SW 5 7 30.51 1033 10 16.0934 0 0
11:35 pm 23:35 Cloudy 23 -5.2 14 -10.1 69 69 WSW 3 6 30.51 1033 10 16.0934 0 0
11:55 pm 23:55 Cloudy 22 -5.3 14 -10.1 69 69 WSW 6 9 30.5 1033 10 16.0934 0 0

Powered by AerisWeather